When you browse on this site, cookies collect data to enhance your experience and personalize the content and advertising you see.
Visit our Privacy Policy to learn more. By continuing to use the site, you agree to this use of cookies and data.
  • In Hungary
  • List of Countries
  • For 7 days
  • Water Temperature
  • Satellite Maps
  • Weather Map
  • News
  • Weather Widgets
  • user-avatar
    Login

    Hourly Weather Limba

    Today, 17 January, Thursday

    Time Temperature Precipitation Wind Pressure Humidity
    00:00 +20°C° 0 mm 1 mps 659 mmHg 92%
    01:00 +20°C° 0 mm 1 mps 658 mmHg 93%
    02:00 +18°C° 0 mm 0 mps 658 mmHg 93%
    03:00 +18°C° 0 mm 0 mps 658 mmHg 92%
    04:00 +18°C° 0 mm 0 mps 658 mmHg 92%
    05:00 +20°C° 0 mm 1 mps 658 mmHg 91%
    06:00 +21°C° 0 mm 1 mps 659 mmHg 88%
    07:00 +22°C° 0 mm 1 mps 659 mmHg 84%
    08:00 +23°C° 0 mm 2 mps 660 mmHg 80%
    09:00 +25°C° 0.2 mm 2 mps 660 mmHg 77%
    10:00 +26°C° 0.2 mm 2 mps 660 mmHg 73%
    11:00 +27°C° 0.2 mm 3 mps 660 mmHg 69%
    12:00 +27°C° 1.3 mm 3 mps 659 mmHg 71%
    13:00 +27°C° 1.3 mm 3 mps 658 mmHg 74%
    14:00 +27°C° 1.3 mm 3 mps 658 mmHg 77%
    15:00 +26°C° 1.3 mm 2 mps 657 mmHg 80%
    16:00 +26°C° 1.3 mm 1 mps 657 mmHg 83%
    17:00 +25°C° 1.3 mm 1 mps 657 mmHg 86%
    18:00 +24°C° 0.5 mm 1 mps 657 mmHg 88%
    19:00 +23°C° 0.5 mm 1 mps 657 mmHg 91%
    20:00 +20°C° 0.5 mm 0 mps 657 mmHg 93%
    21:00 +20°C° 0 mm 0 mps 658 mmHg 93%
    22:00 +19°C° 0 mm 0 mps 658 mmHg 93%
    23:00 +19°C° 0 mm 0 mps 658 mmHg 94%

    Tomorrow, 18 January, Friday

    Time Temperature Precipitation Wind Pressure Humidity
    00:00 +19°C° 0.1 mm 0 mps 658 mmHg 94%
    01:00 +19°C° 0.1 mm 0 mps 657 mmHg 94%
    02:00 +21°C° 0.1 mm 1 mps 657 mmHg 95%
    03:00 +20°C° 0 mm 1 mps 657 mmHg 95%
    04:00 +20°C° 0 mm 1 mps 657 mmHg 96%
    05:00 +20°C° 0 mm 1 mps 657 mmHg 96%
    06:00 +21°C° 0.1 mm 1 mps 657 mmHg 93%
    07:00 +22°C° 0.1 mm 1 mps 658 mmHg 91%
    08:00 +23°C° 0.1 mm 2 mps 659 mmHg 88%
    09:00 +24°C° 0.9 mm 2 mps 659 mmHg 85%
    10:00 +25°C° 0.9 mm 3 mps 659 mmHg 82%
    11:00 +26°C° 0.9 mm 3 mps 659 mmHg 79%
    12:00 +26°C° 2.1 mm 3 mps 658 mmHg 81%
    13:00 +25°C° 2.1 mm 3 mps 657 mmHg 82%
    14:00 +25°C° 2.1 mm 3 mps 657 mmHg 84%
    15:00 +25°C° 1.3 mm 2 mps 657 mmHg 86%
    16:00 +24°C° 1.3 mm 2 mps 657 mmHg 89%
    17:00 +24°C° 1.3 mm 1 mps 657 mmHg 91%
    18:00 +23°C° 0.8 mm 1 mps 657 mmHg 92%
    19:00 +22°C° 0.8 mm 1 mps 657 mmHg 94%
    20:00 +21°C° 0.8 mm 1 mps 658 mmHg 95%
    21:00 +21°C° 0.4 mm 1 mps 658 mmHg 96%
    22:00 +20°C° 0.4 mm 2 mps 658 mmHg 96%
    23:00 +20°C° 0.4 mm 2 mps 658 mmHg 97%

    Day after tomorrow, 19 January, Saturday

    Time Temperature Precipitation Wind Pressure Humidity
    00:00 +19°C° 0.1 mm 2 mps 658 mmHg 97%
    01:00 +19°C° 0.1 mm 2 mps 657 mmHg 97%
    02:00 +19°C° 0.1 mm 2 mps 657 mmHg 98%
    03:00 +19°C° 0.6 mm 2 mps 657 mmHg 98%
    04:00 +19°C° 0.6 mm 2 mps 657 mmHg 97%
    05:00 +19°C° 0.6 mm 2 mps 657 mmHg 97%
    06:00 +19°C° 0.1 mm 2 mps 658 mmHg 96%
    07:00 +20°C° 0.1 mm 2 mps 658 mmHg 95%
    08:00 +20°C° 0.1 mm 2 mps 659 mmHg 93%
    09:00 +21°C° 0.2 mm 2 mps 659 mmHg 92%
    10:00 +21°C° 0.2 mm 3 mps 659 mmHg 90%
    11:00 +22°C° 0.2 mm 3 mps 659 mmHg 89%
    12:00 +22°C° 1.1 mm 3 mps 659 mmHg 89%
    13:00 +22°C° 1.1 mm 3 mps 658 mmHg 89%
    14:00 +22°C° 1.1 mm 3 mps 658 mmHg 89%
    15:00 +22°C° 0.5 mm 3 mps 658 mmHg 90%
    16:00 +22°C° 0.5 mm 3 mps 658 mmHg 90%
    17:00 +23°C° 0.5 mm 2 mps 657 mmHg 91%
    18:00 +21°C° 0.3 mm 2 mps 658 mmHg 93%
    19:00 +21°C° 0.3 mm 1 mps 658 mmHg 95%
    20:00 +21°C° 0.3 mm 1 mps 659 mmHg 97%
    21:00 +20°C° 0.1 mm 1 mps 658 mmHg 97%
    22:00 +20°C° 0.1 mm 1 mps 658 mmHg 98%
    23:00 +19°C° 0.1 mm 2 mps 658 mmHg 98%

    20 January, Sunday

    Time Temperature Precipitation Wind Pressure Humidity
    00:00 +20°C° 0 mm 1 mps 658 mmHg 98%
    01:00 +19°C° 0 mm 1 mps 658 mmHg 98%
    02:00 +19°C° 0 mm 1 mps 657 mmHg 98%
    03:00 +19°C° 0 mm 1 mps 657 mmHg 98%
    04:00 +19°C° 0 mm 1 mps 658 mmHg 98%
    05:00 +18°C° 0 mm 1 mps 658 mmHg 98%
    06:00 +20°C° 0 mm 1 mps 659 mmHg 95%
    07:00 +20°C° 0 mm 2 mps 659 mmHg 91%
    08:00 +21°C° 0 mm 2 mps 660 mmHg 88%
    09:00 +23°C° 0.9 mm 2 mps 660 mmHg 86%
    10:00 +24°C° 0.9 mm 3 mps 660 mmHg 83%
    11:00 +25°C° 0.9 mm 3 mps 661 mmHg 80%
    12:00 +25°C° 1.1 mm 3 mps 660 mmHg 82%
    13:00 +24°C° 1.1 mm 3 mps 659 mmHg 84%
    14:00 +24°C° 1.1 mm 3 mps 659 mmHg 86%
    15:00 +22°C° 0.8 mm 3 mps 659 mmHg 88%
    16:00 +23°C° 0.8 mm 2 mps 659 mmHg 90%
    17:00 +21°C° 0.8 mm 2 mps 658 mmHg 93%
    18:00 +21°C° 0.6 mm 2 mps 659 mmHg 94%
    19:00 +20°C° 0.6 mm 2 mps 660 mmHg 95%
    20:00 +20°C° 0.6 mm 1 mps 660 mmHg 97%
    21:00 +20°C° 0.2 mm 1 mps 660 mmHg 96%
    22:00 +20°C° 0.2 mm 1 mps 661 mmHg 96%
    23:00 +20°C° 0.2 mm 1 mps 661 mmHg 96%

    21 January, Monday

    Time Temperature Precipitation Wind Pressure Humidity
    00:00 +20°C° 0.5 mm 1 mps 660 mmHg 96%
    01:00 +18°C° 0.5 mm 2 mps 660 mmHg 96%
    02:00 +18°C° 0.5 mm 2 mps 660 mmHg 96%
    03:00 +18°C° 0.7 mm 2 mps 660 mmHg 96%
    04:00 +18°C° 0.7 mm 2 mps 660 mmHg 96%
    05:00 +17°C° 0.7 mm 2 mps 660 mmHg 96%
    06:00 +17°C° 1.2 mm 2 mps 660 mmHg 96%
    07:00 +17°C° 1.2 mm 2 mps 661 mmHg 96%
    08:00 +17°C° 1.2 mm 2 mps 661 mmHg 95%
    09:00 +17°C° 1.3 mm 2 mps 661 mmHg 95%
    10:00 +17°C° 1.3 mm 2 mps 661 mmHg 95%
    11:00 +17°C° 1.3 mm 2 mps 661 mmHg 94%
    12:00 +18°C° 0.5 mm 2 mps 661 mmHg 92%
    13:00 +19°C° 0.5 mm 2 mps 660 mmHg 90%
    14:00 +20°C° 0.5 mm 2 mps 660 mmHg 88%
    15:00 +19°C° 0.3 mm 2 mps 660 mmHg 89%
    16:00 +19°C° 0.3 mm 2 mps 660 mmHg 91%
    17:00 +20°C° 0.3 mm 1 mps 659 mmHg 92%
    18:00 +19°C° 0.1 mm 1 mps 660 mmHg 94%
    19:00 +19°C° 0.1 mm 1 mps 660 mmHg 96%
    20:00 +18°C° 0.1 mm 1 mps 660 mmHg 97%
    21:00 +18°C° 0 mm 1 mps 660 mmHg 97%
    22:00 +18°C° 0 mm 1 mps 660 mmHg 97%
    23:00 +16°C° 0 mm 0 mps 660 mmHg 97%

    22 January, Tuesday

    Time Temperature Precipitation Wind Pressure Humidity
    00:00 +15°C° 0 mm 0 mps 659 mmHg 97%
    01:00 +16°C° 0 mm 1 mps 659 mmHg 97%
    02:00 +16°C° 0 mm 1 mps 659 mmHg 96%
    03:00 +15°C° 0 mm 1 mps 659 mmHg 97%
    04:00 +15°C° 0 mm 1 mps 659 mmHg 97%
    05:00 +14°C° 0 mm 1 mps 659 mmHg 97%
    06:00 +16°C° 0 mm 1 mps 659 mmHg 93%
    07:00 +18°C° 0 mm 1 mps 660 mmHg 89%
    08:00 +20°C° 0 mm 1 mps 661 mmHg 85%
    09:00 +22°C° 0 mm 1 mps 661 mmHg 76%
    10:00 +24°C° 0 mm 1 mps 661 mmHg 66%
    11:00 +27°C° 0 mm 1 mps 661 mmHg 56%
    12:00 +27°C° 0 mm 1 mps 661 mmHg 56%
    13:00 +27°C° 0 mm 2 mps 660 mmHg 56%
    14:00 +27°C° 0 mm 2 mps 659 mmHg 55%
    15:00 +26°C° 0.1 mm 2 mps 659 mmHg 62%
    16:00 +25°C° 0.1 mm 2 mps 658 mmHg 69%
    17:00 +24°C° 0.1 mm 3 mps 658 mmHg 76%
    18:00 +23°C° 0.1 mm 2 mps 658 mmHg 82%
    19:00 +20°C° 0.1 mm 2 mps 658 mmHg 88%
    20:00 +20°C° 0.1 mm 1 mps 658 mmHg 94%
    21:00 +19°C° 0 mm 1 mps 658 mmHg 94%
    22:00 +19°C° 0 mm 1 mps 658 mmHg 94%
    23:00 +19°C° 0 mm 1 mps 658 mmHg 94%
    Show more